Location: Pianadetto
(44.4000°N, 10.1000°E)
Time: 03:20:50
(UTC+00:00)

BREEZE-M DEB (TANK) - Pass Details

Date: 26 May 2022
Orbit: 300 x 13683 km, 49.6° (Epoch: 26 June)

Event Time Altitude Azimuth Distance (km) Brightness Sun altitude
Exits shadow 02:44:59 11° 237° (WSW) 2,445 5.4 -9.1°
Maximum altitude 02:49:30 72° 154° (SSE) 465 2.4 -8.5°
Drops below altitude 10° 02:51:53 - 68° (ENE) 1,302 6.2 -8.1°
Sets 02:53:15 0° 66° (ENE) 2,003 7.5 -8.0°
